This is the latest recevied weather packets stored in our database for station/object K9RJT. If no packets are shown the sender has not sent any weather packets the latest 10 day(s).
| Time | Temp. | Humidity | Pressure | Rain* | Wind** | Luminosity | Snow |
|---|---|---|---|---|---|---|---|
| 1777357151 | 3.89° C | 63% | 1013.7 hPa | 0 mm | - | 0 W/m² | - |
| 1777356849 | 4.44° C | 62% | 1013.5 hPa | 0 mm | - | 0 W/m² | - |
| 1777356546 | 4.44° C | 62% | 1013.5 hPa | 0 mm | - | 0 W/m² | - |
| 1777356243 | 4.44° C | 61% | 1013.6 hPa | 0 mm | - | 0 W/m² | - |
| 1777355939 | 5.56° C | 59% | 1013.4 hPa | 0 mm | - | 0 W/m² | - |
| 1777355636 | 5.56° C | 58% | 1013.5 hPa | 0 mm | - | 0 W/m² | - |
| 1777355333 | 6.11° C | 57% | 1013.3 hPa | 0 mm | - | 0 W/m² | - |
| 1777355029 | 6.11° C | 57% | 1013.5 hPa | 0 mm | - | 0 W/m² | - |
| 1777354725 | 6.11° C | 56% | 1013.4 hPa | 0 mm | - | 0 W/m² | - |
| 1777354420 | 6.11° C | 57% | 1013.3 hPa | 0 mm | - | 0 W/m² | - |
| 1777354118 | 6.11° C | 55% | 1013.5 hPa | 0 mm | - | 0 W/m² | - |
| 1777353814 | 5.56° C | 56% | 1013.1 hPa | 0 mm | - | 0 W/m² | - |
| 1777353512 | 6.11° C | 55% | 1013.4 hPa | 0 mm | - | 0 W/m² | - |
| 1777353210 | 6.11° C | 54% | 1013.4 hPa | 0 mm | - | 0 W/m² | - |
| 1777352908 | 7.22° C | 52% | 1013.1 hPa | 0 mm | - | 0 W/m² | - |
| 1777352606 | 7.78° C | 50% | 1013.1 hPa | 0 mm | - | 0 W/m² | - |
| 1777352303 | 7.78° C | 50% | 1013.3 hPa | 0 mm | - | 0 W/m² | - |
| 1777352001 | 7.78° C | 49% | 1012.9 hPa | 0 mm | - | 0 W/m² | - |
| 1777351698 | 8.33° C | 49% | 1012.9 hPa | 0 mm | - | 0 W/m² | - |
| 1777351395 | 8.89° C | 46% | 1013.1 hPa | 0 mm | - | 0 W/m² | - |
| 1777351095 | 8.89° C | 46% | 1012.8 hPa | 0 mm | - | 0 W/m² | - |
| 1777350793 | 8.89° C | 46% | 1013 hPa | 0 mm | - | 0 W/m² | - |
| 1777350488 | 8.89° C | 45% | 1012.8 hPa | 0 mm | - | 0 W/m² | - |
| 1777350186 | 8.89° C | 46% | 1012.6 hPa | 0 mm | - | 0 W/m² | - |
| 1777349883 | 8.89° C | 46% | 1012.8 hPa | 0 mm | - | 0 W/m² | - |
* Rain latest hour (hover to see other rain measurements)
** Current wind speed in m/s (hover to see current wind gust speed)